DW3835 Weather Reports


Display with metric or nautical units.
time (UTC)temp
F
wind
direction
speed
MPH
gust
MPH
rain 1hr
in
rain 24hr
in
rain mn
in
humidity
%
barometer
mb
20260906141001 57 173 0.0 5.0 0.00 0.00 0.00 88 1013.3
20260906135945 57 138 0.0 1.0 0.00 0.00 0.00 87 1013.3
20260906135007 57 213 0.0 3.0 0.00 0.00 0.00 87 1013.1
20260906134019 57 167 0.0 4.0 0.00 0.00 0.00 87 1013.1
20260906133035 57 180 0.0 4.0 0.00 0.00 0.00 87 1013.0
20260906132020 57 162 0.0 2.0 0.00 0.00 0.00 87 1013.0
20260906124648 57 256 0.0 2.0 0.00 0.00 0.00 87 1012.9
20260906123644 57 175 0.0 0.0 0.00 0.00 0.00 87 1012.7
20260906122634 57 174 0.0 0.0 0.00 0.00 0.00 87 1012.7
20260906121616 57 162 0.0 0.0 0.00 0.00 0.00 88 1012.7
20260906120606 57 142 0.0 0.0 0.00 0.00 0.00 87 1012.8
20260906112154 58 194 0.0 0.0 0.00 0.00 0.00 87 1012.7
20260906111132 58 200 0.0 0.0 0.00 0.00 0.00 88 1012.7
20260906110136 57 87 0.0 0.0 0.00 0.00 0.00 88 1012.7
20260906105125 57 196 0.0 0.0 0.00 0.00 0.00 88 1012.7
20260906104114 57 125 0.0 0.0 0.00 0.00 0.00 88 1012.8
20260906103057 57 122 0.0 0.0 0.00 0.00 0.00 88 1012.7
20260906102045 57 96 0.0 0.0 0.00 0.00 0.00 88 1012.7
20260906101108 57 166 0.0 2.0 0.00 0.00 0.00 88 1012.7
20260906100056 58 171 0.0 3.0 0.00 0.00 0.00 88 1012.6
20260906095118 58 176 0.0 4.0 0.00 0.00 0.00 88 1012.5
20260906094131 58 158 0.0 4.0 0.00 0.00 0.00 88 1012.6
20260906090924 58 163 0.0 3.0 0.00 0.00 0.00 88 1012.8
20260906085919 58 192 0.0 2.0 0.00 0.00 0.00 87 1012.8
20260906084844 58 176 0.0 2.0 0.00 0.00 0.00 87 1012.8
20260906082807 58 120 0.0 0.0 0.00 0.00 0.00 86 1012.8
20260906081829 58 202 0.0 0.0 0.00 0.00 0.00 86 1012.8
20260906080802 58 193 0.0 1.0 0.00 0.00 0.00 86 1012.8
20260906075738 58 170 0.0 0.0 0.00 0.00 0.00 86 1012.9
20260906074801 58 171 0.0 0.0 0.00 0.00 0.00 85 1012.9
20260906073817 58 67 0.0 0.0 0.00 0.00 0.00 84 1012.8
20260906072814 58 67 0.0 0.0 0.00 0.00 0.00 84 1012.9
20260906071745 59 67 0.0 0.0 0.00 0.00 0.00 83 1012.8
20260906070806 59 67 0.0 0.0 0.00 0.00 0.00 83 1012.8
20260906065731 59 67 0.0 0.0 0.00 0.00 0.00 82 1012.9
20260906064732 59 67 0.0 0.0 0.00 0.00 0.00 82 1013.0
20260906063714 60 67 0.0 0.0 0.00 0.00 0.00 81 1013.0
20260906062715 60 67 0.0 0.0 0.00 0.00 0.00 81 1013.1
20260906061712 60 67 0.0 0.0 0.00 0.00 0.00 81 1013.1
20260906060736 60 67 0.0 0.0 0.00 0.00 0.00 80 1013.3
20260906055708 61 300 0.0 0.0 0.00 0.00 0.00 78 1013.3
20260906054717 60 298 0.0 0.0 0.00 0.00 0.00 78 1013.3
20260906053703 60 302 0.0 0.0 0.00 0.00 0.00 78 1013.4
20260906052654 61 169 0.0 0.0 0.00 0.00 0.00 77 1013.4
20260906051709 61 165 0.0 0.0 0.00 0.00 0.00 77 1013.5
20260906050648 61 153 0.0 0.0 0.00 0.00 0.00 76 1013.6
20260906045649 62 155 0.0 0.0 0.00 0.00 0.00 74 1013.6
20260906044640 62 155 0.0 0.0 0.00 0.00 0.00 74 1013.5
20260906043648 62 155 0.0 0.0 0.00 0.00 0.00 73 1013.4
20260906041519 63 83 0.0 0.0 0.00 0.00 0.00 71 1013.3
20260906040515 63 68 0.0 0.0 0.00 0.00 0.00 70 1013.2
20260906035518 63 68 0.0 0.0 0.00 0.00 0.00 69 1013.0
20260906034503 64 68 0.0 0.0 0.00 0.00 0.00 67 1012.9
20260906033445 64 68 0.0 0.0 0.00 0.00 0.00 66 1012.8
20260906032444 65 67 0.0 0.0 0.00 0.00 0.00 66 1012.6
20260906031433 64 67 0.0 0.0 0.00 0.00 0.00 65 1012.4
20260906030415 65 67 0.0 0.0 0.00 0.00 0.00 63 1012.4
20260906025353 65 98 0.0 0.0 0.00 0.00 0.00 63 1012.3
20260906022006 67 159 0.0 1.0 0.00 0.00 0.00 59 1012.4
20260906021011 67 140 0.0 1.0 0.00 0.00 0.00 58 1012.4
20260906020006 68 153 0.0 0.0 0.00 0.00 0.00 56 1012.3
20260906013825 69 131 0.0 0.0 0.00 0.00 0.00 54 1012.4
20260906012805 69 157 0.0 4.0 0.00 0.00 0.00 54 1012.4
20260906011738 69 154 0.0 4.0 0.00 0.00 0.00 52 1012.4
20260906010728 70 291 0.0 4.0 0.00 0.00 0.00 54 1012.4
20260906005733 70 5 0.0 4.0 0.00 0.00 0.00 53 1012.5
20260906004732 70 136 1.0 4.0 0.00 0.00 0.00 53 1012.5
20260906003704 70 74 0.0 4.0 0.00 0.00 0.00 52 1012.6
20260906002703 70 184 0.0 4.0 0.00 0.00 0.00 53 1012.6
20260906001647 71 161 1.0 3.0 0.00 0.00 0.00 52 1012.6
20260906000616 72 159 0.0 4.0 0.00 0.00 0.00 53 1012.5
20260905234440 72 171 0.0 4.0 0.00 0.00 0.00 53 1012.5
20260905232306 73 94 1.0 4.0 0.00 0.00 0.00 50 1012.6
20260905231328 73 156 2.0 6.0 0.00 0.00 0.00 49 1012.7
20260905230340 73 165 2.0 9.0 0.00 0.00 0.00 48 1012.7
20260905225345 73 178 2.0 9.0 0.00 0.00 0.00 47 1012.7
20260905224338 74 125 1.0 7.0 0.00 0.00 0.00 48 1012.9
20260905223319 74 136 1.0 6.0 0.00 0.00 0.00 50 1013.0
20260905215941 74 184 2.0 7.0 0.00 0.00 0.00 48 1013.0
20260905214931 75 174 1.0 4.0 0.00 0.00 0.00 51 1013.0
20260905213910 75 126 2.0 6.0 0.00 0.00 0.00 49 1013.0
20260905212846 75 144 2.0 5.0 0.00 0.00 0.00 51 1013.0
20260905211904 76 158 1.0 4.0 0.00 0.00 0.00 48 1013.1
20260905210834 77 148 1.0 4.0 0.00 0.00 0.00 49 1013.1
20260905205832 77 347 1.0 3.0 0.00 0.00 0.00 49 1013.2
20260905204840 77 187 1.0 4.0 0.00 0.00 0.00 50 1013.1
20260905203832 77 202 1.0 6.0 0.00 0.00 0.00 53 1013.1
20260905202830 77 185 1.0 6.0 0.00 0.00 0.00 51 1013.1
20260905201850 76 157 1.0 5.0 0.00 0.00 0.00 54 1013.1
20260905200908 77 187 2.0 5.0 0.00 0.00 0.00 51 1013.2
20260905195836 76 138 1.0 3.0 0.00 0.00 0.00 48 1013.2
20260905194855 76 31 1.0 7.0 0.00 0.00 0.00 47 1013.3
20260905193853 75 170 2.0 7.0 0.00 0.00 0.00 49 1013.4
20260905192859 76 220 1.0 5.0 0.00 0.00 0.00 50 1013.4
20260905191834 76 126 1.0 7.0 0.00 0.00 0.00 50 1013.5
20260905190812 74 236 1.0 7.0 0.00 0.00 0.00 51 1013.5
20260905185827 74 340 1.0 5.0 0.00 0.00 0.00 51 1013.4
20260905184807 73 140 1.0 5.0 0.00 0.00 0.00 50 1013.5
20260905183745 73 166 1.0 4.0 0.00 0.00 0.00 54 1013.6
20260905182759 73 161 0.0 4.0 0.00 0.00 0.00 54 1013.6
20260905181758 72 290 0.0 7.0 0.00 0.00 0.00 56 1013.6
20260905180732 72 181 1.0 7.0 0.00 0.00 0.00 54 1013.5
20260905175753 71 195 1.0 4.0 0.00 0.00 0.00 55 1013.5
20260905174811 71 149 1.0 5.0 0.00 0.00 0.00 59 1013.6
20260905173808 71 167 1.0 5.0 0.00 0.00 0.00 62 1013.5
20260905172819 69 178 0.0 0.0 0.00 0.00 0.00 65 1013.4
20260905171844 69 179 0.0 0.0 0.00 0.00 0.00 72 1013.4
20260905170825 68 171 0.0 0.0 0.00 0.00 0.00 75 1013.4
20260905165803 67 258 0.0 0.0 0.00 0.00 0.00 76 1013.3
20260905164806 66 99 0.0 0.0 0.00 0.00 0.00 78 1013.2
20260905163822 65 159 0.0 0.0 0.00 0.00 0.00 80 1013.2
20260905162810 64 123 0.0 0.0 0.00 0.00 0.00 80 1013.2
20260905161757 63 112 0.0 0.0 0.00 0.00 0.00 82 1013.2
20260905160818 63 168 0.0 0.0 0.00 0.00 0.00 83 1013.2
20260905154704 61 85 0.0 0.0 0.00 0.00 0.00 87 1013.3
20260905153716 60 141 0.0 0.0 0.00 0.00 0.00 88 1013.3
20260905152652 59 85 0.0 0.0 0.00 0.00 0.00 89 1013.4
20260905145427 57 126 0.0 0.0 0.00 0.00 0.00 89 1013.2
20260905144405 57 147 0.0 0.0 0.00 0.00 0.00 89 1013.2
20260905142253 57 99 0.0 0.0 0.00 0.00 0.00 89 1013.1